EW0538 Weather Reports


time (UTC)temp
F
wind
direction
speed
knots
gust
knots
rain 1hr
in
rain 24hr
in
rain mn
in
humidity
%
barometer
mb
20260508074702 40 132 0.0 0.0 0.00 0.00 0.00 85 1013.2
20260508073716 41 132 0.0 0.0 0.00 0.00 0.00 83 1013.1
20260508071537 42 132 0.0 0.0 0.00 0.00 0.00 80 1013.3
20260508070534 42 133 0.0 0.0 0.00 0.00 0.00 82 1013.2
20260508065539 43 278 0.0 0.0 0.00 0.00 0.00 78 1013.3
20260508064540 44 278 0.0 0.0 0.00 0.00 0.00 76 1013.2
20260508061252 45 278 0.0 0.0 0.00 0.00 0.00 77 1013.3
20260508060314 44 148 0.0 0.0 0.00 0.00 0.00 77 1013.3
20260508055309 44 148 0.0 0.0 0.00 0.00 0.00 77 1013.3
20260508054313 44 148 0.0 0.0 0.00 0.00 0.00 78 1013.3
20260508052116 45 148 0.0 0.0 0.00 0.00 0.00 75 1013.4
20260508051050 46 148 0.0 0.0 0.00 0.00 0.00 72 1013.3
20260508050054 47 148 0.0 0.0 0.00 0.00 0.00 72 1013.4
20260508045032 47 148 0.0 0.0 0.00 0.00 0.00 69 1013.6
20260508044017 47 148 0.0 0.0 0.00 0.00 0.00 67 1013.5
20260508043015 47 49 0.0 0.0 0.00 0.00 0.00 67 1013.7
20260508042001 47 31 0.0 0.0 0.00 0.00 0.00 65 1013.4
20260508040941 47 32 0.0 0.0 0.00 0.00 0.00 67 1013.5
20260508035942 48 31 0.0 0.0 0.00 0.00 0.00 66 1013.5
20260508034935 49 32 0.0 0.0 0.00 0.00 0.00 63 1013.4
20260508033937 50 32 0.0 0.0 0.00 0.00 0.00 63 1013.4
20260508032957 51 141 0.0 0.0 0.00 0.00 0.00 62 1013.3
20260508031950 51 141 0.0 0.0 0.00 0.00 0.00 61 1013.1
20260508030917 52 141 0.0 0.0 0.00 0.00 0.00 58 1013.2
20260508025942 53 141 0.0 0.0 0.00 0.00 0.00 54 1012.9
20260508025000 54 141 0.0 0.0 0.00 0.00 0.00 51 1012.8
20260508023934 55 141 0.0 0.0 0.00 0.00 0.00 48 1012.7
20260508022939 56 145 0.0 0.0 0.00 0.00 0.00 48 1012.6
20260508022003 57 129 0.0 0.0 0.00 0.00 0.00 46 1012.6
20260508015914 59 351 0.0 1.7 0.00 0.00 0.00 40 1012.7
20260508014911 59 328 0.9 7.0 0.00 0.00 0.00 40 1012.6
20260508013840 60 336 3.5 7.8 0.00 0.00 0.00 39 1012.4
20260508012858 60 341 2.6 8.7 0.00 0.00 0.00 38 1012.4
20260508010801 61 357 2.6 7.8 0.00 0.00 0.00 36 1012.5
20260508005801 62 8 2.6 7.8 0.00 0.00 0.00 34 1012.3
20260508004806 62 4 1.7 13.0 0.00 0.00 0.00 33 1012.3
20260508003755 63 34 2.6 13.0 0.00 0.00 0.00 31 1012.4
20260508002810 63 342 3.5 7.8 0.00 0.00 0.00 30 1012.3
20260508001815 63 314 2.6 8.7 0.00 0.00 0.00 32 1012.2
20260508000825 64 354 2.6 11.3 0.00 0.00 0.00 31 1012.3
20260507234700 64 6 0.9 3.5 0.00 0.00 0.00 32 1012.1
20260507233635 64 20 0.9 5.2 0.00 0.00 0.00 31 1012.2
20260507232640 65 250 0.9 5.2 0.00 0.00 0.00 31 1012.4
20260507231631 65 25 0.0 0.0 0.00 0.00 0.00 30 1012.5
20260507230645 65 274 0.0 5.2 0.00 0.00 0.00 30 1012.6
20260507225705 65 4 0.9 0.9 0.00 0.00 0.00 32 1012.6
20260507224648 64 1 0.9 7.8 0.00 0.00 0.00 31 1012.7
20260507223701 64 47 1.7 6.1 0.00 0.00 0.00 33 1012.8
20260507222627 64 334 0.9 6.1 0.00 0.00 0.00 33 1012.9
20260507221608 64 324 1.7 6.1 0.00 0.00 0.00 33 1013.2
20260507220549 63 346 2.6 7.0 0.00 0.00 0.00 33 1013.4
20260507212254 65 321 2.6 8.7 0.00 0.00 0.00 30 1014.3
20260507211251 65 316 2.6 8.7 0.00 0.00 0.00 31 1014.6
20260507210223 65 27 0.9 4.3 0.00 0.00 0.00 31 1014.9
20260507205246 63 284 2.6 7.8 0.00 0.00 0.00 31 1015.3
20260507204217 62 33 1.7 7.8 0.00 0.00 0.00 32 1015.6
20260507203207 63 9 1.7 7.0 0.00 0.00 0.00 31 1015.9
20260507202214 64 266 0.0 4.3 0.00 0.00 0.00 31 1016.1
20260507201142 63 250 0.0 0.0 0.00 0.00 0.00 31 1016.3
20260507200133 63 243 0.9 3.5 0.00 0.00 0.00 32 1016.7
20260507195137 61 22 0.0 1.7 0.00 0.00 0.00 32 1016.8
20260507194104 61 170 0.0 0.0 0.00 0.00 0.00 32 1017.1
20260507193050 60 150 0.9 2.6 0.00 0.00 0.00 33 1017.3
20260507192109 59 28 0.9 5.2 0.00 0.00 0.00 34 1017.6
20260507191113 59 105 0.9 3.5 0.00 0.00 0.00 34 1017.9
20260507190123 58 146 0.0 1.7 0.00 0.00 0.00 34 1018.0
20260507185117 57 281 0.0 1.7 0.00 0.00 0.00 36 1018.4
20260507182941 56 294 0.0 0.0 0.00 0.00 0.00 36 1018.9
20260507180839 54 40 0.0 3.5 0.00 0.00 0.00 36 1019.4
20260507175847 54 253 0.0 4.3 0.00 0.00 0.00 37 1019.5
20260507173721 52 321 0.9 3.5 0.00 0.00 0.00 39 1019.9
20260507172718 52 358 0.9 5.2 0.00 0.00 0.00 38 1020.0
20260507171716 51 8 0.9 5.2 0.00 0.00 0.00 41 1020.2
20260507170653 50 331 0.9 4.3 0.00 0.00 0.00 41 1020.4
20260507165659 50 9 1.7 4.3 0.00 0.00 0.00 42 1020.4
20260507164649 50 351 2.6 6.1 0.00 0.00 0.00 42 1020.7
20260507163649 50 27 1.7 6.1 0.00 0.00 0.00 43 1020.9
20260507162637 49 353 1.7 6.1 0.00 0.00 0.00 44 1021.1
20260507160510 46 40 0.0 3.5 0.00 0.00 0.00 44 1021.4
20260507155514 45 293 0.0 3.5 0.00 0.00 0.00 44 1021.8
20260507154529 44 33 0.0 2.6 0.00 0.00 0.00 48 1022.1
20260507153544 44 13 0.9 3.5 0.00 0.00 0.00 48 1022.5
20260507152600 44 355 0.0 1.7 0.00 0.00 0.00 49 1022.8
20260507151623 43 163 0.0 1.7 0.00 0.00 0.00 51 1023.0
20260507150554 41 121 0.0 0.0 0.00 0.00 0.00 55 1023.5
20260507144349 40 346 0.0 0.0 0.00 0.00 0.00 59 1023.7
20260507143319 38 88 0.0 0.0 0.00 0.00 0.00 64 1023.8
20260507142249 38 124 0.0 0.0 0.00 0.01 0.00 66 1023.8
20260507141309 36 134 0.0 0.0 0.00 0.02 0.00 68 1023.9
20260507135108 34 345 0.0 0.0 0.00 0.02 0.00 72 1023.8
20260507134038 34 354 0.0 0.0 0.00 0.02 0.00 74 1023.8
20260507133054 33 120 0.0 0.0 0.00 0.02 0.00 78 1023.6
20260507132042 31 120 0.0 0.0 0.00 0.02 0.00 87 1023.5
20260507131007 28 120 0.0 0.0 0.00 0.02 0.00 91 1023.0
20260507130008 27 131 0.0 0.0 0.00 0.02 0.00 93 1022.8
20260507080708 27 134 0.0 0.0 0.00 0.02 0.00 88 1022.8
20260507075657 28 134 0.0 0.0 0.00 0.02 0.00 86 1022.8